GS234 EBCI-EDXW

Flight info

Callsign GS234
Flight time N/A
Altitude 30000
Route LNO N852 VELED/N0313F290 DCT JUIST N873 IQITA
Aircraft TBM9/L-SDFGRWY/S

Departure

Time 2026-04-28 19:06
Airport Brussels South Charleroi Airport (EBCI)

Arrival

Time N/A
Airport Westerland Sylt Airport (EDXW)
Time Latitude Longitude Altitude Speed Heading
2026-04-28 18:52 50.45880 4.45512 607 ft 0 kts 245°
2026-04-28 19:03 50.45868 4.45470 607 ft 13 kts 246°
2026-04-28 19:03 50.45872 4.45373 607 ft 9 kts 285°
2026-04-28 19:03 50.45861 4.45270 607 ft 11 kts 252°
2026-04-28 19:04 50.45818 4.45140 608 ft 16 kts 255°
2026-04-28 19:04 50.45766 4.44955 611 ft 21 kts 253°
2026-04-28 19:04 50.45699 4.44729 619 ft 26 kts 249°
2026-04-28 19:04 50.45706 4.44644 620 ft 0 kts 326°
2026-04-28 19:05 50.45763 4.44609 610 ft 20 kts 14°
2026-04-28 19:05 50.45891 4.44949 610 ft 61 kts 65°
2026-04-28 19:06 50.46151 4.45770 681 ft 101 kts 57°
2026-04-28 19:06 50.46413 4.46433 892 ft 112 kts 57°
2026-04-28 19:06 50.46922 4.47895 1573 ft 115 kts 52°
2026-04-28 19:06 50.47395 4.48832 2176 ft 106 kts 57°
2026-04-28 19:07 50.47859 4.49748 2669 ft 108 kts 56°
2026-04-28 19:07 50.48345 4.50674 3170 ft 111 kts 56°
2026-04-28 19:07 50.48843 4.51616 3656 ft 113 kts 57°
2026-04-28 19:07 50.49357 4.52586 4071 ft 118 kts 57°
2026-04-28 19:08 50.49884 4.53577 4500 ft 121 kts 57°
2026-04-28 19:08 50.50429 4.54598 4968 ft 123 kts 57°
2026-04-28 19:08 50.50990 4.55645 5398 ft 127 kts 56°
2026-04-28 19:08 50.51564 4.56716 5828 ft 129 kts 56°
2026-04-28 19:09 50.52151 4.57817 6233 ft 134 kts 55°
2026-04-28 19:09 50.52747 4.58967 6681 ft 135 kts 58°
2026-04-28 19:09 50.53325 4.60146 7098 ft 137 kts 57°
2026-04-28 19:09 50.53907 4.61316 7555 ft 135 kts 57°
2026-04-28 19:10 50.54494 4.62499 7980 ft 138 kts 57°
2026-04-28 19:10 50.54931 4.63832 8310 ft 144 kts 66°
2026-04-28 19:10 50.55618 4.64990 8787 ft 145 kts 47°
2026-04-28 19:10 50.56320 4.66093 9293 ft 140 kts 57°
2026-04-28 19:11 50.56804 4.67393 9712 ft 138 kts 91°
2026-04-28 19:11 50.56379 4.68681 10048 ft 138 kts 114°
2026-04-28 19:11 50.56279 4.70134 10437 ft 140 kts 62°
2026-04-28 19:11 50.57114 4.71021 10771 ft 150 kts 34°
2026-04-28 19:12 50.57885 4.72043 11186 ft 145 kts 51°
2026-04-28 19:12 50.58461 4.73303 11595 ft 142 kts 78°
2026-04-28 19:12 50.58297 4.74834 11905 ft 150 kts 111°
2026-04-28 19:12 50.58022 4.76464 12178 ft 160 kts 94°
2026-04-28 19:13 50.58011 4.78266 12461 ft 169 kts 84°
2026-04-28 19:13 50.58558 4.79937 12749 ft 181 kts 48°
2026-04-28 19:13 50.59673 4.80986 13043 ft 194 kts 26°
2026-04-28 19:13 50.60930 4.81792 13324 ft 200 kts 25°
2026-04-28 19:14 50.62246 4.82683 13607 ft 206 kts 27°
2026-04-28 19:14 50.63558 4.83593 13888 ft 211 kts 27°
2026-04-28 19:14 50.64899 4.84573 14144 ft 212 kts 37°
2026-04-28 19:14 50.66049 4.86041 14196 ft 214 kts 33°
2026-04-28 19:15 50.67530 4.86608 14439 ft 222 kts 12°
2026-04-28 19:15 50.69036 4.87033 14732 ft 218 kts 23°
2026-04-28 19:15 50.70385 4.88053 14999 ft 218 kts 31°
2026-04-28 19:15 50.71277 4.88822 15174 ft 220 kts 31°
2026-04-28 19:16 50.73067 4.90223 15506 ft 224 kts 27°
2026-04-28 19:16 50.74516 4.91204 15763 ft 227 kts 26°
2026-04-28 19:16 50.75953 4.92182 16014 ft 229 kts 26°
2026-04-28 19:16 50.78710 4.94107 16497 ft 231 kts 26°
2026-04-28 19:17 50.81760 4.96231 17032 ft 233 kts 26°
2026-04-28 19:17 50.87741 5.00408 18103 ft 236 kts 26°
2026-04-28 19:17 50.93781 5.04638 19101 ft 238 kts 27°
2026-04-28 19:17 50.99869 5.08908 20081 ft 239 kts 26°
2026-04-28 19:18 51.05873 5.13143 21078 ft 241 kts 26°
2026-04-28 19:18 51.07459 5.14260 21346 ft 242 kts 25°
2026-04-28 19:18 51.08998 5.15347 21609 ft 242 kts 26°
2026-04-28 19:18 51.10518 5.16423 21861 ft 242 kts 26°
2026-04-28 19:19 51.12065 5.17516 22125 ft 243 kts 25°
2026-04-28 19:19 51.13621 5.18617 22394 ft 243 kts 25°
2026-04-28 19:19 51.15159 5.19707 22669 ft 244 kts 26°
2026-04-28 19:19 51.16713 5.20808 22933 ft 244 kts 25°
2026-04-28 19:20 51.18266 5.21908 23207 ft 244 kts 26°
2026-04-28 19:20 51.19298 5.22641 23390 ft 245 kts 26°
2026-04-28 19:20 51.20854 5.23747 23665 ft 245 kts 25°
2026-04-28 19:20 51.22410 5.24852 23914 ft 245 kts 25°
2026-04-28 19:21 51.24473 5.26318 24228 ft 244 kts 25°
2026-04-28 19:21 51.25522 5.27066 24388 ft 244 kts 25°
2026-04-28 19:21 51.27051 5.28155 24624 ft 243 kts 25°
2026-04-28 19:21 51.28597 5.29256 24865 ft 243 kts 25°
2026-04-28 19:22 51.30141 5.30357 25105 ft 242 kts 26°
2026-04-28 19:22 51.31180 5.31100 25268 ft 242 kts 25°
2026-04-28 19:22 51.33214 5.32552 25603 ft 242 kts 25°
2026-04-28 19:22 51.34756 5.33655 25851 ft 242 kts 25°
2026-04-28 19:23 51.36289 5.34751 26100 ft 241 kts 25°
2026-04-28 19:23 51.37824 5.35850 26351 ft 241 kts 25°
2026-04-28 19:23 51.39344 5.36926 26601 ft 241 kts 24°
2026-04-28 19:23 51.40891 5.37964 26858 ft 241 kts 25°
2026-04-28 19:24 51.42438 5.39020 27116 ft 241 kts 24°
2026-04-28 19:24 51.43985 5.40075 27376 ft 241 kts 24°
2026-04-28 19:24 51.45530 5.41123 27637 ft 241 kts 25°
2026-04-28 19:24 51.47072 5.42171 27901 ft 240 kts 26°
2026-04-28 19:25 51.48613 5.43219 28172 ft 240 kts 26°
2026-04-28 19:25 51.50148 5.44264 28439 ft 240 kts 26°
2026-04-28 19:25 51.51684 5.45311 28715 ft 239 kts 26°
2026-04-28 19:25 51.53218 5.46356 28991 ft 239 kts 26°
2026-04-28 19:26 51.54723 5.47383 29262 ft 238 kts 26°
2026-04-28 19:26 51.60306 5.51199 30213 ft 239 kts 26°
2026-04-28 19:26 51.63478 5.53375 30236 ft 255 kts 26°
2026-04-28 19:26 51.66780 5.55638 30238 ft 267 kts 26°
2026-04-28 19:27 51.70239 5.58015 30242 ft 272 kts 27°
2026-04-28 19:27 51.73748 5.60429 30245 ft 275 kts 27°
2026-04-28 19:27 51.77283 5.62865 30249 ft 277 kts 27°
2026-04-28 19:27 51.80840 5.65321 30249 ft 278 kts 27°
2026-04-28 19:28 51.84417 5.67796 30252 ft 279 kts 27°
2026-04-28 19:28 51.87986 5.70269 30255 ft 280 kts 27°
2026-04-28 19:28 51.91565 5.72753 30252 ft 280 kts 28°
2026-04-28 19:28 51.95127 5.75229 30256 ft 278 kts 28°
2026-04-28 19:29 51.98697 5.77716 30265 ft 277 kts 28°
2026-04-28 19:29 52.01043 5.79352 30266 ft 277 kts 28°
2026-04-28 19:29 52.05788 5.82669 30273 ft 277 kts 28°
2026-04-28 19:29 52.09320 5.85142 30273 ft 276 kts 28°
2026-04-28 19:30 52.12852 5.87619 30269 ft 276 kts 28°
2026-04-28 19:30 52.16335 5.90066 30259 ft 275 kts 28°
2026-04-28 19:30 52.19849 5.92539 30274 ft 274 kts 27°
2026-04-28 19:30 52.23365 5.95020 30276 ft 274 kts 27°
2026-04-28 19:31 52.26876 5.97499 30279 ft 274 kts 27°
2026-04-28 19:31 52.30379 5.99976 30279 ft 274 kts 27°
2026-04-28 19:31 52.33834 6.02425 30284 ft 274 kts 27°
2026-04-28 19:31 52.37332 6.04908 30283 ft 273 kts 27°
2026-04-28 19:32 52.40837 6.07401 30286 ft 273 kts 27°
2026-04-28 19:32 52.44317 6.09880 30294 ft 272 kts 27°
2026-04-28 19:32 52.47787 6.12356 30293 ft 272 kts 27°
2026-04-28 19:32 52.51259 6.14838 30298 ft 272 kts 27°
2026-04-28 19:33 52.54728 6.17323 30298 ft 272 kts 27°
2026-04-28 19:33 52.58197 6.19811 30298 ft 272 kts 27°
2026-04-28 19:33 52.61619 6.22270 30297 ft 271 kts 27°
2026-04-28 19:33 52.65070 6.24754 30298 ft 271 kts 27°
2026-04-28 19:34 52.68527 6.27247 30295 ft 270 kts 27°
2026-04-28 19:34 52.70515 6.28682 30303 ft 270 kts 27°
2026-04-28 19:34 52.72238 6.29928 30303 ft 270 kts 27°
2026-04-28 19:34 52.73961 6.31173 30303 ft 270 kts 26°
2026-04-28 19:35 52.75684 6.32429 30292 ft 269 kts 27°
2026-04-28 19:35 52.77394 6.33684 30294 ft 269 kts 27°
2026-04-28 19:35 52.79119 6.34901 30306 ft 269 kts 26°
2026-04-28 19:35 52.80818 6.36119 30309 ft 269 kts 27°
2026-04-28 19:36 52.82525 6.37390 30311 ft 268 kts 28°
2026-04-28 19:36 52.84225 6.38657 30310 ft 268 kts 27°
2026-04-28 19:36 52.85939 6.39885 30312 ft 268 kts 26°
2026-04-28 19:36 52.87647 6.41102 30314 ft 267 kts 26°
2026-04-28 19:37 52.89352 6.42343 30317 ft 267 kts 27°
2026-04-28 19:37 52.90472 6.43170 30318 ft 267 kts 26°
2026-04-28 19:37 52.92720 6.44825 30318 ft 267 kts 27°
2026-04-28 19:37 52.94422 6.46071 30318 ft 267 kts 27°
2026-04-28 19:38 52.96123 6.47310 30324 ft 267 kts 27°
2026-04-28 19:38 52.97822 6.48547 30330 ft 267 kts 26°
2026-04-28 19:38 52.99522 6.49794 30326 ft 266 kts 28°
2026-04-28 19:38 53.01208 6.51058 30322 ft 266 kts 26°
2026-04-28 19:39 53.02912 6.52265 30320 ft 266 kts 27°
2026-04-28 19:39 53.04597 6.53524 30322 ft 266 kts 27°
2026-04-28 19:39 53.06289 6.54771 30322 ft 266 kts 27°